Weather History for Somerville, NJ

Change the Weather History Date:

Wednesday, February 6, 2013

  Actual Average Record
Temperature  
Mean Temperature 36 °F -  
Max Temperature 46 °F 35 °F 69 °F (1991)
Min Temperature 26 °F 18 °F 1 °F (1947)
Degree Days  
Heating Degree Days 29    
Moisture  
Dew Point 25 °F    
Average Humidity 76    
Maximum Humidity 86    
Minimum Humidity 39    
Precipitation  
Precipitation 0.01 in - - ()
Sea Level Pressure  
Sea Level Pressure 30.06 in    
Wind  
Wind Speed 2 mph (NW)    
Max Wind Speed 13 mph    
Max Gust Speed 21 mph    
Visibility 5 miles    
Events Fog    
Averages and records for this station are not official NWS values.
T = Trace of Precipitation, MM = Missing Value Source: NWS Daily Summary

Daily Weather History Graph

Daily Weather History Graph

Search for Another Location

Airport:

Trip Planner

Search our weather history database for the weather conditions in past years. The results will help you decide how hot, cold, wet, or windy it might be!

Date:

Astronomy

Feb. 06, 2013 Rise Set
Actual Time 7:03 AM EST 5:23 PM EST
Civil Twilight 6:34 AM EST 5:51 PM EST
Nautical Twilight 6:02 AM EST 6:24 PM EST
Astronomical Twilight 5:30 AM EST 6:55 PM EST
Moon 3:44 AM EST (2/6) 1:38 PM EST (2/6)
Length of Visible Light 11h 17m
Length of Day
10h 19m
Waning Crescent, 17% of the Moon is Illuminated
Feb 6
Waning Crescent
Feb 10
New
Feb 17
First Quarter
Feb 25
Full
Mar 4
Last Quarter

Hourly Weather History & Observations

Time (EST) Temp. Windchill Dew Point Humidity Pressure Visibility Wind Dir Wind Speed Gust Speed Precip Events Conditions
12:53 AM 33.1 °F - 28.0 °F 82% 29.92 in 1.5 mi Calm Calm - N/A   Haze
1:09 AM 33.8 °F - 28.4 °F 81% 29.92 in 1.8 mi Calm Calm - N/A   Overcast
1:33 AM 33.8 °F - 28.4 °F 81% 29.91 in 2.0 mi Calm Calm - N/A   Haze
1:53 AM 34.0 °F - 28.9 °F 82% 29.93 in 2.0 mi Calm Calm - N/A   Haze
2:32 AM 33.8 °F - 28.4 °F 81% 29.91 in 1.8 mi Calm Calm - N/A   Haze
2:53 AM 32.0 °F - 27.0 °F 82% 29.93 in 1.2 mi Calm Calm - N/A   Haze
3:53 AM 30.9 °F - 27.0 °F 85% 29.94 in 1.5 mi Calm Calm - N/A   Overcast
4:40 AM 28.4 °F - 24.8 °F 86% 29.95 in 0.5 mi Calm Calm - N/A   Haze
4:51 AM 28.4 °F - 24.8 °F 86% 29.95 in 1.2 mi Calm Calm - N/A   Haze
4:52 AM 28.9 °F - 24.1 °F 82% 29.96 in 1.2 mi Calm Calm - N/A   Haze
4:55 AM 28.4 °F - 24.8 °F 86% 29.96 in 1.0 mi Calm Calm - N/A   Haze
5:02 AM 28.4 °F - 24.8 °F 86% 29.95 in 0.5 mi Calm Calm - N/A Fog Light Freezing Fog
5:09 AM 26.6 °F - 23.0 °F 86% 29.96 in 0.2 mi Calm Calm - N/A Fog Light Freezing Fog
5:23 AM 26.6 °F 22.6 °F 23.0 °F 86% 29.96 in 1.0 mi NW 3.5 mph - N/A   Mist
5:33 AM 26.6 °F 22.6 °F 23.0 °F 86% 29.97 in 1.8 mi WNW 3.5 mph - N/A   Scattered Clouds
5:43 AM 28.4 °F - 24.8 °F 86% 29.97 in 2.5 mi Calm Calm - N/A   Haze
5:51 AM 28.4 °F 24.6 °F 24.8 °F 86% 29.98 in 3.0 mi Variable 3.5 mph - N/A   Mostly Cloudy
5:53 AM 30.0 °F 26.5 °F 25.0 °F 82% 29.99 in 3.0 mi West 3.5 mph - N/A   Haze
6:53 AM 32.0 °F - 26.1 °F 79% 30.02 in 4.0 mi Calm Calm - N/A   Haze
7:07 AM 30.2 °F 26.7 °F 24.8 °F 80% 30.01 in 1.8 mi Variable 3.5 mph - N/A   Haze
7:53 AM 30.9 °F 27.5 °F 25.0 °F 79% 30.07 in 2.0 mi Variable 3.5 mph - N/A   Haze
8:02 AM 33.8 °F 26.4 °F 24.8 °F 70% 30.06 in 3.0 mi NNW 9.2 mph - N/A   Haze
8:53 AM 39.0 °F 35.7 °F 25.0 °F 57% 30.08 in 5.0 mi WNW 4.6 mph - N/A   Haze
9:53 AM 41.0 °F 38.0 °F 24.8 °F 53% 30.10 in 9.0 mi Variable 4.6 mph - N/A   Overcast
10:53 AM 46.9 °F - 23.0 °F 39% 30.12 in 10.0 mi Variable 5.8 mph - N/A   Scattered Clouds
11:53 AM 44.1 °F 40.1 °F 21.9 °F 42% 30.12 in 10.0 mi Variable 6.9 mph 18.4 mph 0.01 in   Overcast
12:53 PM 44.1 °F 38.6 °F 21.0 °F 40% 30.11 in 10.0 mi NW 10.4 mph 17.3 mph N/A   Overcast
1:53 PM - - - N/A% 30.11 in 10.0 mi WNW 12.7 mph 18.4 mph N/A   Overcast
2:53 PM - - - N/A% 30.12 in 10.0 mi NW 10.4 mph 20.7 mph N/A   Mostly Cloudy
3:53 PM - - - N/A% 30.15 in 10.0 mi NW 9.2 mph - N/A   Mostly Cloudy
4:53 PM - - - N/A% 30.18 in 10.0 mi NW 8.1 mph - N/A   Scattered Clouds
5:53 PM - - - N/A% 30.21 in 10.0 mi Calm Calm - N/A   Clear
6:53 PM - - - N/A% 30.25 in 10.0 mi NW 8.1 mph - N/A   Clear
7:53 PM - - - N/A% 30.27 in 10.0 mi NNW 4.6 mph - N/A   Clear
8:53 PM - - - N/A% 30.29 in 10.0 mi North 5.8 mph - N/A   Clear
9:53 PM - - - N/A% 30.31 in 10.0 mi NNW 6.9 mph - N/A   Clear
10:53 PM - - - N/A% 30.34 in 10.0 mi North 4.6 mph - N/A   Clear
11:53 PM - - - N/A% 30.35 in 10.0 mi North 3.5 mph - N/A   Clear